Powrót do katalogu

STARLINK-31017

AktywnyŁącznośćVLEO
NORAD 58515·PAYLOAD·🇺🇸 United States

Wystrzelony Dec 7, 2023 z Cape Canaveral Space Force Station

Loading…

Następne Przeloty (najbliższe 24 godziny)

TLE

ŚwieżeSource: CelesTrak SupGP

Epoka: Sep 14, 2026, 21:06 UTC

1 58515C 23191H   26257.87965278  .00040604  00000+0  14708-2 0  2576
2 58515  43.0026 242.7168 0001368 263.3023  81.9192 15.27554771    13

Śledź STARLINK-31017 w czasie rzeczywistym z AllMySat

Download on the App Store